Showing default

COSMOS 198, 3081

Orbit data source: Space-Track

COSMOS 198, 3081 is a payload satellite owned by TSKBM (CIS) in LEO that was launched on Wed, 27 Dec 1967 UTC via a TSIKLON-2A launch vehicle from the Tyuratam Missile And Space Complex (TTMTR). Payload-class satellites include a variety of spacecraft equipped with specific instruments for various scientific and technological missions. These include communications satellites like Starlink; space stations such as the ISS; scientific satellites like the Hubble; Earth observation satellites from companies like Planet Labs, Umbra, and HawkEye 360; GPS; miniature CubeSats for education and research; and military/defense satellites.

Loading next visibility...
Identifier
3081, 1967-127A
Orbit
LEO
Country
Flag of CISCIS
Related business
Manufacturer
TSKBM/KB1
Mission
Spacecraft
Bus & Motor
US-A ROCH, Unknown motor
Mass
3,800 kg wet, 1,140 kg dry
Launch date (UTC)
1967-12-27 (58 years ago)
Launch vehicle
TSIKLON-2A
Launch site
Tyuratam Missile And Space Complex (TTMTR)
Object type
Payload
Rocket body
Debris
Shape & HBR
Unknown
Radar Cross Section
Large (>1 m²)

Expand to show TLE details & history
Last TLE update: 23 hours ago

TLE from 23 hours ago
0 COSMOS 198
1  3081U 67127A   25304.84855885 -.00000039  00000-0  38920-4 0  9999
2  3081  65.1408 159.1641 0026878 193.1901 166.8465 13.93374664941769
Epoch: 2025-10-31T20:21Z
TLE epoch observation values (Epoch: 2025-10-31T20:21:55.484Z)
Latitude
-0.00008°
Longitude
173.29578°
Altitude
937.874 km
Speed
7.374 km/s
True Right ascension
10h 36m 39s
True Declination
0° 00' 00"
Sunlit
Object was in daylight at epoch
Visualization orbit readout
Latitude
Unknown
Longitude
Unknown
Altitude
Unknown
Speed
Unknown
Apparent Right ascension
Unknown
Apparent Declination
Unknown
Sunlit
N/A
Visualization observer readout
Local Sidereal Time
14:44:37
Azimuth
Unknown
Elevation
Unknown
Doppler factor
Unknown
Orbital elements
Apogee altitude
935.018 km
Perigee altitude
895.811 km
Semi-major axis
7,293.552 km
Eccentricity
0.00269
Inclination
65.1408°
RAAN
159.1641°
Arg. of periapsis
193.1901°
True anomaly
166.91636°
Mean anomaly
166.8465°
Eccentric anomaly
166.88145°
Mean motion
3.48445 °/min
Orbital period
103.32 mins
BSTAR
0.00003892
Loading maneuver chart data...
Computing Atmospheric mass density...
Loading historical data...
Loading historical data...
Loading historical data...
Loading historical data...
Loading historical data...
Loading historical data...
Loading historical data...
Other satellites on launch #127 in the year 1967 (1967-12-27 UTC)

Documentation

Showing up to 5 results
|